Time,TemperatureF,DewpointF,PressureIn,WindDirection,WindDirectionDegrees,WindSpeedMPH,WindSpeedGustMPH,Humidity,HourlyPrecipIn,Conditions,Clouds,dailyrainin,SolarRadiationWatts/m^2,SoftwareType,DateUTC
2013-03-23 00:00:00,62.6,57.0,29.92,SSE,168,2.0,5.0,82,0.00,CLR,SCT,0.00,0.0,WeatherDisplay:10.37,2013-03-23 10:00:00,
2013-03-23 00:10:00,62.9,57.3,29.92,SSE,167,2.0,5.0,82,0.00,CLR,SCT,0.00,0.0,WeatherDisplay:10.37,2013-03-23 10:10:00,
2013-03-23 00:20:00,63.1,57.5,29.92,SSE,167,2.0,4.0,82,0.00,CLR,SCT,0.00,0.0,WeatherDisplay:10.37,2013-03-23 10:20:00,
2013-03-23 00:30:00,63.1,57.9,29.92,SSE,166,1.0,3.0,83,0.00,CLR,SCT,0.00,0.0,WeatherDisplay:10.37,2013-03-23 10:30:00,
2013-03-23 00:40:00,63.1,57.9,29.92,South,169,1.0,4.0,83,0.00,CLR,SCT,0.00,0.0,WeatherDisplay:10.37,2013-03-23 10:40:00,
2013-03-23 00:50:00,63.1,57.9,29.92,South,170,1.0,3.0,83,0.00,CLR,SCT,0.00,0.0,WeatherDisplay:10.37,2013-03-23 10:50:00,
2013-03-23 01:00:00,63.0,57.8,29.91,South,169,2.0,4.0,83,0.00,CLR,SCT,0.00,0.0,WeatherDisplay:10.37,2013-03-23 11:00:00,
2013-03-23 01:10:00,63.1,57.9,29.91,South,173,3.0,7.0,83,0.00,FEW,SCT,0.00,0.0,WeatherDisplay:10.37,2013-03-23 11:10:00,
2013-03-23 01:20:00,63.2,58.3,29.91,South,171,1.0,5.0,84,0.00,FEW,SCT,0.00,0.0,WeatherDisplay:10.37,2013-03-23 11:20:00,
2013-03-23 01:30:00,63.2,58.3,29.91,South,170,1.0,5.0,84,0.00,FEW,SCT,0.00,0.0,WeatherDisplay:10.37,2013-03-23 11:30:00,
2013-03-23 01:40:00,63.2,58.3,29.91,South,169,3.0,4.0,84,0.00,FEW,SCT,0.00,0.0,WeatherDisplay:10.37,2013-03-23 11:40:00,
2013-03-23 01:50:00,63.4,58.5,29.90,SSE,160,2.0,5.0,84,0.00,FEW,SCT,0.00,0.0,WeatherDisplay:10.37,2013-03-23 11:50:00,
2013-03-23 02:00:00,63.6,58.3,29.90,South,172,2.0,6.0,83,0.00,FEW,SCT,0.00,0.0,WeatherDisplay:10.37,2013-03-23 12:00:00,
2013-03-23 02:10:00,63.8,58.5,29.89,South,180,2.0,5.0,83,0.00,SCT,SCT,0.00,0.0,WeatherDisplay:10.37,2013-03-23 12:10:00,
2013-03-23 02:20:00,63.9,58.6,29.89,South,180,1.0,4.0,83,0.00,SCT,SCT,0.00,0.0,WeatherDisplay:10.37,2013-03-23 12:20:00,
2013-03-23 02:30:00,64.1,59.2,29.89,South,186,2.0,4.0,84,0.00,SCT,SCT,0.00,0.0,WeatherDisplay:10.37,2013-03-23 12:30:00,
2013-03-23 02:40:00,64.2,59.3,29.89,South,186,2.0,5.0,84,0.00,SCT,SCT,0.00,0.0,WeatherDisplay:10.37,2013-03-23 12:40:00,
2013-03-23 02:50:00,64.3,59.4,29.89,South,186,1.0,4.0,84,0.00,SCT,SCT,0.00,0.0,WeatherDisplay:10.37,2013-03-23 12:50:00,
2013-03-23 03:00:00,64.3,59.4,29.88,South,184,2.0,5.0,84,0.00,SCT,SCT,0.00,0.0,WeatherDisplay:10.37,2013-03-23 13:00:00,
2013-03-23 03:10:00,64.7,59.7,29.88,SSW,193,2.0,6.0,84,0.00,CLR,SCT,0.00,0.0,WeatherDisplay:10.37,2013-03-23 13:10:00,
2013-03-23 03:20:00,65.0,59.7,29.88,SSW,192,2.0,5.0,83,0.00,CLR,SCT,0.00,0.0,WeatherDisplay:10.37,2013-03-23 13:20:00,
2013-03-23 03:30:00,65.2,59.9,29.88,SSW,192,2.0,7.0,83,0.00,CLR,SCT,0.00,0.0,WeatherDisplay:10.37,2013-03-23 13:30:00,
2013-03-23 03:40:00,65.2,59.9,29.87,South,189,1.0,6.0,83,0.00,CLR,SCT,0.00,0.0,WeatherDisplay:10.37,2013-03-23 13:40:00,
2013-03-23 03:50:00,65.2,59.9,29.88,South,188,1.0,4.0,83,0.00,CLR,SCT,0.00,0.0,WeatherDisplay:10.37,2013-03-23 13:50:00,
2013-03-23 04:00:00,65.2,59.9,29.87,SSW,192,1.0,3.0,83,0.00,CLR,SCT,0.00,0.0,WeatherDisplay:10.37,2013-03-23 14:00:00,
2013-03-23 04:10:00,65.3,59.7,29.87,South,188,5.0,7.0,82,0.00,OVC,SCT,0.00,0.0,WeatherDisplay:10.37,2013-03-23 14:10:00,
2013-03-23 04:20:00,65.5,59.9,29.88,SSW,195,3.0,7.0,82,0.00,OVC,SCT,0.00,0.0,WeatherDisplay:10.37,2013-03-23 14:20:00,
2013-03-23 04:30:00,65.6,60.0,29.87,South,187,3.0,7.0,82,0.00,OVC,SCT,0.00,0.0,WeatherDisplay:10.37,2013-03-23 14:30:00,
2013-03-23 04:40:00,65.6,60.0,29.88,SSW,193,2.0,6.0,82,0.00,OVC,SCT,0.00,0.0,WeatherDisplay:10.37,2013-03-23 14:40:00,
2013-03-23 04:50:00,65.7,60.0,29.88,South,191,2.0,6.0,82,0.00,OVC,SCT,0.00,0.0,WeatherDisplay:10.37,2013-03-23 14:50:00,
2013-03-23 05:00:00,65.6,59.9,29.89,South,191,2.0,6.0,82,0.00,OVC,SCT,0.00,0.0,WeatherDisplay:10.37,2013-03-23 15:00:00,
2013-03-23 05:10:00,65.4,60.1,29.89,SSW,196,1.0,5.0,83,0.00,OVC,SCT,0.00,0.0,WeatherDisplay:10.37,2013-03-23 15:10:00,
2013-03-23 05:20:00,65.1,59.8,29.89,SSW,196,0.0,3.0,83,0.00,OVC,SCT,0.00,0.0,WeatherDisplay:10.37,2013-03-23 15:20:00,
2013-03-23 05:30:00,64.6,59.7,29.90,SSW,196,0.0,1.0,84,0.00,OVC,SCT,0.00,0.0,WeatherDisplay:10.37,2013-03-23 15:30:00,
2013-03-23 05:40:00,64.3,59.7,29.90,SSW,196,1.0,2.0,85,0.00,OVC,SCT,0.00,0.0,WeatherDisplay:10.37,2013-03-23 15:40:00,
2013-03-23 05:50:00,64.1,59.4,29.90,SSW,196,0.0,2.0,85,0.00,OVC,SCT,0.00,0.0,WeatherDisplay:10.37,2013-03-23 15:50:00,
2013-03-23 06:00:00,63.8,59.5,29.90,SSW,196,0.0,0.0,86,0.00,OVC,SCT,0.00,0.0,WeatherDisplay:10.37,2013-03-23 16:00:00,
2013-03-23 06:10:00,63.6,59.3,29.90,SSW,196,0.0,2.0,86,0.00,FEW,SCT,0.00,0.0,WeatherDisplay:10.37,2013-03-23 16:10:00,
2013-03-23 06:20:00,63.5,59.9,29.91,SSW,196,0.0,1.0,88,0.00,FEW,SCT,0.00,0.0,WeatherDisplay:10.37,2013-03-23 16:20:00,
2013-03-23 06:30:00,63.5,59.9,29.91,SSW,196,0.0,0.0,88,0.00,FEW,SCT,0.00,0.0,WeatherDisplay:10.37,2013-03-23 16:30:00,
2013-03-23 06:40:00,63.5,59.9,29.91,SSW,196,0.0,0.0,88,0.00,FEW,SCT,0.00,0.0,WeatherDisplay:10.37,2013-03-23 16:40:00,
2013-03-23 06:50:00,63.6,60.3,29.92,SSW,196,0.0,0.0,89,0.00,FEW,SCT,0.00,0.1,WeatherDisplay:10.37,2013-03-23 16:50:00,
2013-03-23 07:00:00,63.7,60.4,29.92,SSW,196,0.0,0.0,89,0.00,FEW,SCT,0.00,0.2,WeatherDisplay:10.37,2013-03-23 17:00:00,
2013-03-23 07:10:00,63.8,60.5,29.93,SSW,196,0.0,0.0,89,0.00,BKN,SCT,0.00,0.4,WeatherDisplay:10.37,2013-03-23 17:10:00,
2013-03-23 07:20:00,64.1,61.1,29.93,SSW,196,0.0,0.0,90,0.00,BKN,SCT,0.00,1.3,WeatherDisplay:10.37,2013-03-23 17:20:00,
2013-03-23 07:30:00,64.7,62.3,29.94,SSW,196,0.0,0.0,92,0.00,BKN,SCT,0.00,2.3,WeatherDisplay:10.37,2013-03-23 17:30:00,
2013-03-23 07:40:00,65.1,62.7,29.94,SSW,196,0.0,1.0,92,0.00,BKN,SCT,0.00,3.3,WeatherDisplay:10.37,2013-03-23 17:40:00,
2013-03-23 07:50:00,65.4,63.0,29.94,SSW,196,1.0,2.0,92,0.00,BKN,SCT,0.00,5.3,WeatherDisplay:10.37,2013-03-23 17:50:00,
2013-03-23 08:00:00,65.7,63.3,29.95,SSW,196,0.0,3.0,92,0.00,BKN,SCT,0.00,10.5,WeatherDisplay:10.37,2013-03-23 18:00:00,
2013-03-23 08:10:00,66.1,63.7,29.95,SSW,196,0.0,1.0,92,0.00,BKN,SCT,0.00,13.5,WeatherDisplay:10.37,2013-03-23 18:10:00,
2013-03-23 08:20:00,66.5,63.8,29.95,SSW,196,0.0,2.0,91,0.00,BKN,SCT,0.00,26.6,WeatherDisplay:10.37,2013-03-23 18:20:00,
2013-03-23 08:30:00,67.0,64.0,29.95,NNW,348,2.0,4.0,90,0.00,BKN,SCT,0.00,36.6,WeatherDisplay:10.37,2013-03-23 18:30:00,
2013-03-23 08:40:00,67.5,64.5,29.96,North,355,2.0,4.0,90,0.00,BKN,SCT,0.00,51.5,WeatherDisplay:10.37,2013-03-23 18:40:00,
2013-03-23 08:50:00,68.3,64.9,29.96,NE,49,2.0,5.0,89,0.00,BKN,SCT,0.00,60.3,WeatherDisplay:10.37,2013-03-23 18:50:00,
2013-03-23 09:00:00,68.6,64.6,29.96,NNE,13,1.0,5.0,87,0.00,BKN,SCT,0.00,91.6,WeatherDisplay:10.37,2013-03-23 19:00:00,
2013-03-23 09:10:00,69.1,64.8,29.96,NNE,28,2.0,5.0,86,0.00,SCT,SCT,0.00,118.3,WeatherDisplay:10.37,2013-03-23 19:10:00,
2013-03-23 09:20:00,69.6,65.3,29.95,North,358,1.0,5.0,86,0.00,SCT,SCT,0.00,165.5,WeatherDisplay:10.37,2013-03-23 19:20:00,
2013-03-23 09:30:00,70.3,65.5,29.95,NNW,331,1.0,4.0,85,0.00,SCT,SCT,0.00,244.5,WeatherDisplay:10.37,2013-03-23 19:30:00,
2013-03-23 09:40:00,70.9,65.8,29.95,NNW,343,1.0,5.0,84,0.00,SCT,SCT,0.00,138.7,WeatherDisplay:10.37,2013-03-23 19:40:00,
2013-03-23 09:50:00,70.9,65.8,29.95,NNW,343,3.0,6.0,84,0.00,SCT,SCT,0.00,130.4,WeatherDisplay:10.37,2013-03-23 19:50:00,
2013-03-23 10:00:00,70.4,65.6,29.95,NNW,344,5.0,7.0,85,0.00,SCT,SCT,0.00,108.2,WeatherDisplay:10.37,2013-03-23 20:00:00,
2013-03-23 10:10:00,69.8,65.0,29.95,North,357,5.0,7.0,85,0.00,SCT,SCT,0.00,150.0,WeatherDisplay:10.37,2013-03-23 20:10:00,
2013-03-23 10:20:00,69.5,65.1,29.95,North,8,3.0,8.0,86,0.00,SCT,SCT,0.00,197.7,WeatherDisplay:10.37,2013-03-23 20:20:00,
2013-03-23 10:30:00,69.9,65.5,29.95,NNW,335,3.0,7.0,86,0.00,SCT,SCT,0.00,161.4,WeatherDisplay:10.37,2013-03-23 20:30:00,
2013-03-23 10:40:00,70.0,65.3,29.95,NW,324,3.0,6.0,85,0.00,SCT,SCT,0.00,263.2,WeatherDisplay:10.37,2013-03-23 20:40:00,
2013-03-23 10:50:00,70.1,65.0,29.95,NNW,332,5.0,7.0,84,0.00,SCT,SCT,0.00,310.6,WeatherDisplay:10.37,2013-03-23 20:50:00,
2013-03-23 11:00:00,70.0,65.6,29.94,NNW,341,1.0,6.0,86,0.00,SCT,SCT,0.00,432.1,WeatherDisplay:10.37,2013-03-23 21:00:00,
2013-03-23 11:10:00,71.2,65.4,29.94,North,10,3.0,7.0,82,0.00,SCT,SCT,0.00,358.3,WeatherDisplay:10.37,2013-03-23 21:10:00,
2013-03-23 11:20:00,71.9,65.8,29.94,North,3,3.0,7.0,81,0.00,BKN,SCT,0.00,302.0,WeatherDisplay:10.37,2013-03-23 21:20:00,
2013-03-23 11:30:00,71.8,66.0,29.94,NNW,339,5.0,9.0,82,0.00,BKN,SCT,0.00,446.3,WeatherDisplay:10.37,2013-03-23 21:30:00,
2013-03-23 11:40:00,72.2,66.4,29.94,NNW,331,5.0,8.0,82,0.00,BKN,SCT,0.00,427.2,WeatherDisplay:10.37,2013-03-23 21:40:00,
2013-03-23 11:50:00,72.3,66.1,29.94,NNW,329,6.0,9.0,81,0.00,BKN,SCT,0.00,260.9,WeatherDisplay:10.37,2013-03-23 21:50:00,
2013-03-23 12:00:00,71.3,66.6,29.94,NNW,328,5.0,9.0,85,0.00,BKN,SCT,0.00,482.6,WeatherDisplay:10.37,2013-03-23 22:00:00,
2013-03-23 12:10:00,70.8,67.0,29.93,NW,320,6.0,9.0,88,0.00,BKN,SCT,0.00,371.4,WeatherDisplay:10.37,2013-03-23 22:10:00,
2013-03-23 12:20:00,70.3,67.2,29.93,NNW,329,2.0,7.0,90,0.01,RA,SCT,0.01,564.8,WeatherDisplay:10.37,2013-03-23 22:20:00,
2013-03-23 12:30:00,70.0,66.3,29.92,NNW,348,1.0,6.0,88,0.01,RA,SCT,0.02,480.2,WeatherDisplay:10.37,2013-03-23 22:30:00,
2013-03-23 12:40:00,69.8,66.7,29.92,NNW,341,2.0,6.0,90,0.01,RA,SCT,0.03,328.8,WeatherDisplay:10.37,2013-03-23 22:40:00,
2013-03-23 12:50:00,69.6,66.5,29.92,NNW,327,5.0,7.0,90,0.00,BKN,SCT,0.03,218.7,WeatherDisplay:10.37,2013-03-23 22:50:00,
2013-03-23 13:00:00,69.4,66.3,29.91,NNW,344,2.0,7.0,90,0.00,BKN,SCT,0.03,658.7,WeatherDisplay:10.37,2013-03-23 23:00:00,
2013-03-23 13:10:00,69.4,66.7,29.91,North,351,3.0,6.0,91,0.00,BKN,SCT,0.03,450.8,WeatherDisplay:10.37,2013-03-23 23:10:00,
2013-03-23 13:20:00,68.8,65.7,29.91,North,357,3.0,8.0,90,0.04,RA,SCT,0.07,211.9,WeatherDisplay:10.37,2013-03-23 23:20:00,
2013-03-23 13:30:00,68.3,65.6,29.91,NNW,331,3.0,5.0,91,0.03,RA,SCT,0.10,226.4,WeatherDisplay:10.37,2013-03-23 23:30:00,
2013-03-23 13:40:00,68.1,65.7,29.90,NNW,342,2.0,6.0,92,0.04,RA,SCT,0.14,255.1,WeatherDisplay:10.37,2013-03-23 23:40:00,
2013-03-23 13:50:00,67.9,65.8,29.90,North,2,5.0,7.0,93,0.05,RA,SCT,0.19,268.1,WeatherDisplay:10.37,2013-03-23 23:50:00,
2013-03-23 14:00:00,67.5,65.1,29.90,North,3,5.0,8.0,92,0.04,RA,SCT,0.23,228.8,WeatherDisplay:10.37,2013-03-24 00:00:00,
2013-03-23 14:10:00,67.2,64.8,29.89,NNE,26,2.0,7.0,92,0.04,RA,SCT,0.27,120.4,WeatherDisplay:10.37,2013-03-24 00:10:00,
2013-03-23 14:20:00,67.0,64.9,29.88,NNE,30,1.0,7.0,93,0.01,RA,SCT,0.28,184.7,WeatherDisplay:10.37,2013-03-24 00:20:00,
2013-03-23 14:30:00,67.0,65.2,29.88,NNE,30,3.0,10.0,94,0.02,RA,SCT,0.30,72.9,WeatherDisplay:10.37,2013-03-24 00:30:00,
2013-03-23 14:40:00,66.8,65.0,29.88,NE,34,2.0,8.0,94,0.00,BKN,SCT,0.30,87.9,WeatherDisplay:10.37,2013-03-24 00:40:00,
2013-03-23 14:50:00,66.7,64.9,29.88,NE,42,6.0,8.0,94,0.01,RA,SCT,0.31,114.3,WeatherDisplay:10.37,2013-03-24 00:50:00,
2013-03-23 15:00:00,66.5,64.7,29.88,NNE,21,3.0,7.0,94,0.02,RA,SCT,0.33,92.1,WeatherDisplay:10.37,2013-03-24 01:00:00,
2013-03-23 15:10:00,66.3,64.5,29.88,NE,38,2.0,8.0,94,0.02,RA,SCT,0.35,77.9,WeatherDisplay:10.37,2013-03-24 01:10:00,
2013-03-23 15:20:00,66.3,64.8,29.88,NE,36,3.0,8.0,95,0.03,RA,SCT,0.38,73.6,WeatherDisplay:10.37,2013-03-24 01:20:00,
2013-03-23 15:30:00,66.2,64.4,29.87,NE,52,6.0,9.0,94,0.02,RA,SCT,0.40,67.7,WeatherDisplay:10.37,2013-03-24 01:30:00,
2013-03-23 15:40:00,66.1,64.6,29.88,North,8,1.0,9.0,95,0.00,OVC,SCT,0.40,47.1,WeatherDisplay:10.37,2013-03-24 01:40:00,
2013-03-23 15:50:00,65.8,64.3,29.88,NE,42,3.0,9.0,95,0.00,OVC,SCT,0.40,29.1,WeatherDisplay:10.37,2013-03-24 01:50:00,
2013-03-23 16:00:00,65.9,64.4,29.87,NE,55,3.0,9.0,95,0.00,OVC,SCT,0.40,51.6,WeatherDisplay:10.37,2013-03-24 02:00:00,
2013-03-23 16:10:00,65.9,64.4,29.87,NE,45,5.0,10.0,95,0.01,RA,SCT,0.41,32.9,WeatherDisplay:10.37,2013-03-24 02:10:00,
2013-03-23 16:20:00,66.1,64.6,29.87,NE,50,3.0,8.0,95,0.00,BKN,SCT,0.41,31.8,WeatherDisplay:10.37,2013-03-24 02:20:00,
2013-03-23 16:30:00,66.2,64.7,29.88,NE,48,2.0,10.0,95,0.00,BKN,SCT,0.41,19.7,WeatherDisplay:10.37,2013-03-24 02:30:00,
2013-03-23 16:40:00,66.0,64.2,29.88,NE,37,6.0,10.0,94,0.03,RA,SCT,0.44,11.4,WeatherDisplay:10.37,2013-03-24 02:40:00,
2013-03-23 16:50:00,65.8,64.3,29.88,NE,49,2.0,9.0,95,0.03,-RA,SCT,0.47,10.6,WeatherDisplay:10.37,2013-03-24 02:50:00,
2013-03-23 17:00:00,65.8,64.3,29.88,NE,47,5.0,9.0,95,0.03,-RA,SCT,0.50,9.5,WeatherDisplay:10.37,2013-03-24 03:00:00,
2013-03-23 17:10:00,65.6,64.1,29.88,NE,53,5.0,13.0,95,0.02,-RA,SCT,0.52,3.6,WeatherDisplay:10.37,2013-03-24 03:10:00,
2013-03-23 17:20:00,65.3,63.8,29.88,NE,50,6.0,13.0,95,0.07,RA,SCT,0.59,2.4,WeatherDisplay:10.37,2013-03-24 03:20:00,
2013-03-23 17:30:00,65.0,63.5,29.89,NE,41,7.0,15.0,95,0.01,RA,SCT,0.60,0.9,WeatherDisplay:10.37,2013-03-24 03:30:00,
2013-03-23 17:40:00,64.9,63.7,29.89,NE,47,5.0,12.0,96,0.01,RA,SCT,0.61,0.6,WeatherDisplay:10.37,2013-03-24 03:40:00,
2013-03-23 17:50:00,64.8,63.7,29.90,NE,49,7.0,10.0,96,0.02,RA,SCT,0.63,0.5,WeatherDisplay:10.37,2013-03-24 03:50:00,
2013-03-23 18:00:00,64.8,63.6,29.90,NE,47,3.0,10.0,96,0.01,RA,SCT,0.64,0.2,WeatherDisplay:10.37,2013-03-24 04:00:00,
2013-03-23 18:10:00,64.9,63.7,29.91,NE,42,6.0,12.0,96,0.02,RA,SCT,0.66,0.0,WeatherDisplay:10.37,2013-03-24 04:10:00,
2013-03-23 18:20:00,64.7,63.5,29.91,NE,52,5.0,14.0,96,0.01,RA,SCT,0.67,0.0,WeatherDisplay:10.37,2013-03-24 04:20:00,
2013-03-23 18:30:00,64.7,63.5,29.91,NE,40,6.0,12.0,96,0.01,RA,SCT,0.68,0.0,WeatherDisplay:10.37,2013-03-24 04:30:00,
2013-03-23 18:40:00,64.6,63.4,29.92,NE,53,7.0,12.0,96,0.00,OVC,SCT,0.68,0.0,WeatherDisplay:10.37,2013-03-24 04:40:00,
2013-03-23 18:50:00,64.6,63.4,29.92,NE,51,3.0,12.0,96,0.00,OVC,SCT,0.68,0.0,WeatherDisplay:10.37,2013-03-24 04:50:00,
2013-03-23 19:00:00,64.5,63.3,29.93,NE,56,6.0,12.0,96,0.01,RA,SCT,0.69,0.0,WeatherDisplay:10.37,2013-03-24 05:00:00,
2013-03-23 19:10:00,64.6,63.4,29.93,NE,46,3.0,12.0,96,0.00,-RA,SCT,0.69,0.0,WeatherDisplay:10.37,2013-03-24 05:10:00,
2013-03-23 19:20:00,64.6,63.4,29.93,NE,50,2.0,12.0,96,0.01,-RA,SCT,0.70,0.0,WeatherDisplay:10.37,2013-03-24 05:20:00,
2013-03-23 19:30:00,64.6,63.4,29.93,NE,48,6.0,13.0,96,0.01,-RA,SCT,0.71,0.0,WeatherDisplay:10.37,2013-03-24 05:30:00,
2013-03-23 19:40:00,64.7,63.5,29.93,ENE,58,5.0,10.0,96,0.02,-RA,SCT,0.73,0.0,WeatherDisplay:10.37,2013-03-24 05:40:00,
2013-03-23 19:50:00,64.6,63.4,29.93,NE,55,5.0,8.0,96,0.02,-RA,SCT,0.75,0.0,WeatherDisplay:10.37,2013-03-24 05:50:00,
2013-03-23 20:00:00,64.5,63.3,29.94,NE,52,5.0,9.0,96,0.01,-RA,SCT,0.76,0.0,WeatherDisplay:10.37,2013-03-24 06:00:00,
2013-03-23 20:10:00,64.4,63.3,29.94,NE,53,2.0,8.0,96,0.00,OVC,SCT,0.76,0.0,WeatherDisplay:10.37,2013-03-24 06:10:00,
2013-03-23 20:20:00,64.4,63.2,29.94,NE,56,2.0,7.0,96,0.01,RA,SCT,0.77,0.0,WeatherDisplay:10.37,2013-03-24 06:20:00,
2013-03-23 20:30:00,64.4,63.2,29.94,ENE,62,1.0,7.0,96,0.00,OVC,SCT,0.77,0.0,WeatherDisplay:10.37,2013-03-24 06:30:00,
2013-03-23 20:40:00,64.3,63.1,29.94,NE,56,1.0,8.0,96,0.00,OVC,SCT,0.77,0.0,WeatherDisplay:10.37,2013-03-24 06:40:00,
2013-03-23 20:50:00,64.4,63.2,29.96,ENE,58,1.0,6.0,96,0.00,OVC,SCT,0.77,0.0,WeatherDisplay:10.37,2013-03-24 06:50:00,
2013-03-23 21:00:00,64.4,63.2,29.96,NE,42,2.0,7.0,96,0.01,RA,SCT,0.78,0.0,WeatherDisplay:10.37,2013-03-24 07:00:00,
2013-03-23 21:10:00,64.5,63.3,29.97,NE,52,1.0,7.0,96,0.00,-RA,SCT,0.78,0.0,WeatherDisplay:10.37,2013-03-24 07:10:00,
2013-03-23 21:20:00,64.5,63.3,29.97,NE,47,1.0,3.0,96,0.00,-RA,SCT,0.78,0.0,WeatherDisplay:10.37,2013-03-24 07:20:00,
2013-03-23 21:30:00,64.6,63.4,29.97,NE,47,1.0,3.0,96,0.01,-RA,SCT,0.79,0.0,WeatherDisplay:10.37,2013-03-24 07:30:00,
2013-03-23 21:40:00,64.5,63.4,29.98,ENE,71,1.0,3.0,96,0.04,-RA,SCT,0.83,0.0,WeatherDisplay:10.37,2013-03-24 07:40:00,
2013-03-23 21:50:00,64.5,63.3,29.98,ENE,76,1.0,4.0,96,0.03,-RA,SCT,0.86,0.0,WeatherDisplay:10.37,2013-03-24 07:50:00,
2013-03-23 22:00:00,64.5,63.3,29.98,ENE,61,1.0,5.0,96,0.02,-RA,SCT,0.88,0.0,WeatherDisplay:10.37,2013-03-24 08:00:00,
2013-03-23 22:10:00,64.6,63.4,29.97,NE,50,1.0,7.0,96,0.01,RA,SCT,0.89,0.0,WeatherDisplay:10.37,2013-03-24 08:10:00,
2013-03-23 22:20:00,64.7,63.8,29.97,NE,43,0.0,6.0,97,0.00,OVC,SCT,0.89,0.0,WeatherDisplay:10.37,2013-03-24 08:20:00,
2013-03-23 22:30:00,64.6,63.4,29.96,ENE,58,5.0,7.0,96,0.01,RA,SCT,0.90,0.0,WeatherDisplay:10.37,2013-03-24 08:30:00,
2013-03-23 22:40:00,64.6,63.4,29.95,ENE,64,2.0,8.0,96,0.00,OVC,SCT,0.90,0.0,WeatherDisplay:10.37,2013-03-24 08:40:00,
2013-03-23 22:50:00,64.5,63.3,29.94,ENE,66,3.0,9.0,96,0.00,OVC,SCT,0.90,0.0,WeatherDisplay:10.37,2013-03-24 08:50:00,
2013-03-23 23:00:00,64.5,63.3,29.94,ENE,69,2.0,8.0,96,0.00,OVC,SCT,0.90,0.0,WeatherDisplay:10.37,2013-03-24 09:00:00,
2013-03-23 23:10:00,64.4,63.2,29.94,ENE,58,6.0,10.0,96,0.00,SCT,SCT,0.90,0.0,WeatherDisplay:10.37,2013-03-24 09:10:00,
2013-03-23 23:20:00,64.3,63.1,29.93,ENE,60,6.0,10.0,96,0.00,SCT,SCT,0.90,0.0,WeatherDisplay:10.37,2013-03-24 09:20:00,
2013-03-23 23:30:00,64.2,63.0,29.93,NE,46,3.0,10.0,96,0.00,SCT,SCT,0.90,0.0,WeatherDisplay:10.37,2013-03-24 09:30:00,
2013-03-23 23:40:00,64.1,62.9,29.92,North,1,5.0,7.0,96,0.00,SCT,SCT,0.90,0.0,WeatherDisplay:10.37,2013-03-24 09:40:00,
2013-03-23 23:50:00,64.0,62.8,29.92,North,4,5.0,8.0,96,0.00,BKN,SCT,0.90,0.0,WeatherDisplay:10.37,2013-03-24 09:50:00,